Weather History for KCUT - July, 2013

Change the Weather History Date:

Wednesday, July 3, 2013

  Actual Average Record
Temperature  
Mean Temperature 66 °F 64 °F  
Max Temperature 84 °F 78 °F 93 °F (1949)
Min Temperature 47 °F 51 °F 33 °F (1967)
Degree Days  
Heating Degree Days 0 3  
Month to date heating degree days 10 9  
Since 1 June heating degree days 203 229  
Since 1 July heating degree days 10 9  
Cooling Degree Days 1 2  
Month to date cooling degree days 1 6  
Year to date cooling degree days 12 32  
Since 1 June cooling degree days 10 31  
Growing Degree Days 15 (Base 50)    
Moisture  
Dew Point 43 °F    
Average Humidity 51    
Maximum Humidity 80    
Minimum Humidity 22    
Precipitation  
Precipitation 0.00 in 0.07 in 0.97 in (1927)
Month to date precipitation 0.11 0.22  
Year to date precipitation 8.29 10.55  
Sea Level Pressure  
Sea Level Pressure 29.89 in    
Wind  
Wind Speed 5 mph (South)    
Max Wind Speed 14 mph    
Max Gust Speed 20 mph    
Visibility 10 miles    
Events      
T = Trace of Precipitation, MM = Missing Value Source: NWS Daily Summary

Daily Weather History Graph

Daily Weather History Graph

Search for Another Location

Airport or City:

Trip Planner

Search our weather history database for the weather conditions in past years. The results will help you decide how hot, cold, wet, or windy it might be!

Date:

Astronomy

Jul. 03, 2013 Rise Set
Actual Time 5:17 AM MDT 8:39 PM MDT
Civil Twilight 4:42 AM MDT 9:15 PM MDT
Nautical Twilight 3:55 AM MDT 10:01 PM MDT
Astronomical Twilight 2:57 AM MDT 10:59 PM MDT
Moon 2:01 AM MDT (7/3) 4:49 PM MDT (7/3)
Length of Visible Light 16h 33m
Length of Day
15h 21m
Waning Crescent, 18% of the Moon is Illuminated
Jul 3
Waning Crescent
Jul 8
New
Jul 15
First Quarter
Jul 22
Full
Jul 29
Last Quarter

Hourly Weather History & Observations

Time (MDT) Temp. Dew Point Humidity Pressure Visibility Wind Dir Wind Speed Gust Speed Precip Events Conditions
12:53 AM 53.1 °F 45.0 °F 74% 30.03 in 10.0 mi Calm Calm - N/A   Partly Cloudy
1:53 AM 51.1 °F 44.1 °F 77% 30.02 in 10.0 mi NW 3.5 mph - N/A   Clear
2:53 AM 50.0 °F 44.1 °F 80% 30.01 in 10.0 mi Calm Calm - N/A   Clear
3:53 AM 48.9 °F 43.0 °F 80% 29.98 in 10.0 mi WSW 3.5 mph - N/A   Clear
4:53 AM 48.0 °F 43.0 °F 83% 29.98 in 10.0 mi NW 3.5 mph - N/A   Clear
5:53 AM 48.9 °F 43.0 °F 80% 29.97 in 10.0 mi NW 3.5 mph - N/A   Clear
6:53 AM 55.9 °F 46.0 °F 69% 29.95 in 10.0 mi NW 3.5 mph - N/A   Clear
7:53 AM 64.9 °F 44.1 °F 47% 29.93 in 10.0 mi Calm Calm - N/A   Clear
8:53 AM 73.0 °F 46.0 °F 38% 29.90 in 10.0 mi Variable 3.5 mph - N/A   Clear
9:53 AM 75.0 °F 44.1 °F 33% 29.88 in 10.0 mi SSE 10.4 mph - N/A   Clear
10:53 AM 75.9 °F 42.1 °F 30% 29.88 in 10.0 mi SSE 8.1 mph - N/A   Clear
11:53 AM 79.0 °F 43.0 °F 28% 29.87 in 10.0 mi South 8.1 mph - N/A   Scattered Clouds
12:53 PM 80.1 °F 42.1 °F 26% 29.86 in 10.0 mi Variable 4.6 mph - N/A   Partly Cloudy
1:53 PM 81.0 °F 39.0 °F 22% 29.85 in 10.0 mi Variable 4.6 mph - N/A   Partly Cloudy
2:53 PM 82.0 °F 39.9 °F 22% 29.84 in 10.0 mi SW 9.2 mph - N/A   Mostly Cloudy
3:53 PM 81.0 °F 41.0 °F 24% 29.84 in 10.0 mi South 4.6 mph - N/A   Mostly Cloudy
4:53 PM 82.0 °F 39.0 °F 22% 29.82 in 10.0 mi Variable 4.6 mph - N/A   Mostly Cloudy
5:53 PM 79.0 °F 39.9 °F 25% 29.83 in 10.0 mi East 10.4 mph - N/A   Clear
6:53 PM 78.1 °F 41.0 °F 27% 29.83 in 10.0 mi ESE 10.4 mph - N/A   Clear
7:53 PM 75.0 °F 42.1 °F 31% 29.81 in 10.0 mi East 5.8 mph - N/A   Clear
8:53 PM 71.1 °F 43.0 °F 36% 29.81 in 10.0 mi SE 3.5 mph - N/A   Clear
9:53 PM 66.0 °F 43.0 °F 43% 29.83 in 10.0 mi Calm Calm - N/A   Clear
10:53 PM 60.1 °F 43.0 °F 53% 29.84 in 10.0 mi Calm Calm - N/A   Clear
11:53 PM 57.9 °F 43.0 °F 58% 29.83 in 10.0 mi NW 3.5 mph - N/A   Clear